Tracking 19908 objects as of 18-Oct-2019
HD Live streaming from Space Station
objects crossing your sky now

NOAA 16 DEB

Track NOAA 16 DEB now!
10-day predictions


NORAD ID: 41540
Int'l Code: 2000-055NQ
Perigee: 850.8 km
Apogee: 906.8 km
Inclination: 98.8 °
Period: 102.4 minutes
Semi major axis: 7249 km
RCS: Unknown
Launch date: September 21, 2000
Source: United States (US)
Launch site: AIR FORCE WESTERN TEST RANGE (AFWTR)

Note: This is SATELLITE DEBRIS
aabbcc
Your satellite tracking list
Your tracking list is empty




NASA's NSSDC Master Catalog

Two Line Element Set (TLE):
1 41540U 00055NQ  19289.95853855  .00000699  00000-0  44683-3 0  9993
2 41540  98.8485 350.5889 0038639 228.7618 131.0219 14.06410885180136
Source of the keplerian elements: AFSPC